Location: Bidwell Hollow
(37.7387°N, 90.1707°W)
Time: 22:49:16
(UTC+00:00)

Transit 2A - Pass Details

Date: 15 May 2026
Orbit: 595 x 949 km, 66.7° (Epoch: 6 June)

Event Time Altitude Azimuth Distance (km) Brightness Sun altitude
Rises 07:23:44 0° 325° (NW) 3,106 9.5 -29.8°
Reaches altitude 10° 07:26:15 10° 319° (NW) 2,128 8.5 -29.6°
Enters shadow 07:27:34 18° 312° (NW) 1,649 7.9 -29.5°
